Flag for India Weather past 2 weeks in Nagercoil, Tamil Nadu, India

Now
86 °F

Haze.


Feels Like: 95 °F
Forecast: 77 / 88 °F
Wind: 8 mph from West

Location: Thiruvananthapuram

Current Time: Jul 24, 2014 at 7:01:47 PM

Latest Report: Jul 24, 2014 at 5:40 PM


Visibility: 3 mi

Pressure: 29.77 "Hg

Humidity: 70%

Dew point: 75 °F

Location of NagercoilLocation

Historic Weather in Nagercoil — Graph

°F

Nagercoil temperature yesterday

Maximum temperature yesterday: 84 °F (at 5:40 PM)
Minimum temperature yesterday: 75 °F (at 4:40 AM)
Average temperature yesterday: 79 °F

Past Weeks' High & Low Weather Summary

 TemperatureHumidityPressure
High90 °F (Jul 24, 1:40 PM)100% (Jul 16, 3:40 AM)29.89 "Hg (Jul 16, 3:40 AM)
Low75 °F (Jul 16, 3:40 AM)66% (Jul 16, 3:40 PM)29.71 "Hg (Jul 15, 3:40 PM)
Average81 °F82%29.80 "Hg
* Reported Jul 9 6:40 PM — Jul 24 5:40 PM, Nagercoil, Weather by CustomWeather, © 2014

Note: Actual official high and low records may vary slightly from our data, if they occured in-between our weather recording intervals... More about our weather records

Advertising

Nagercoil weather history for previous 24 hours

 ConditionsComfort  
Time TempWeatherWind HumidityBarometerVisibility
5:40 PM
Jul 24
86 °FHaze.8 mph70%29.77 "Hg3 mi
3:40 PM88 °FPassing clouds.12 mph66%29.77 "Hg4 mi
2:40 PM90 °FPassing clouds.14 mph67%29.77 "Hg4 mi
1:40 PM90 °FHaze.9 mph67%29.77 "Hg3 mi
12:40 PM88 °FScattered clouds.12 mph70%29.80 "Hg3 mi
11:40 AM88 °FScattered clouds.10 mph70%29.80 "Hg3 mi
10:40 AM86 °FScattered clouds.10 mph70%29.83 "Hg3 mi
8:40 AM82 °FHaze.7 mph79%29.83 "Hg2 mi
7:40 AM79 °FScattered clouds.3 mph84%29.83 "Hg2 mi
6:40 AM77 °FPassing clouds.3 mph89%29.80 "Hg2 mi
5:40 AM77 °FPartly cloudy.3 mph89%29.80 "Hg2 mi
4:40 AM77 °FPassing clouds.3 mph89%29.80 "Hg2 mi
3:40 AM77 °FPassing clouds.5 mph89%29.80 "Hg2 mi
2:40 AM77 °FPassing clouds.5 mph89%29.80 "Hg2 mi
1:40 AM77 °FPassing clouds.5 mph89%29.80 "Hg2 mi
12:40 AM77 °FPassing clouds.6 mph89%29.83 "Hg2 mi
10:40 PM
Jul 23
77 °FPassing clouds.6 mph89%29.86 "Hg2 mi
9:40 PM79 °FPassing clouds.7 mph84%29.83 "Hg2 mi
8:40 PM79 °FPassing clouds.7 mph89%29.83 "Hg2 mi
7:40 PM81 °FPartly cloudy.6 mph84%29.83 "Hg2 mi
Weather by CustomWeather, © 2014

See weather overviewHow to use our weather pages